Location: Espelette
(43.3402°N, 1.4474°W)
Time: 17:15:16
(UTC+00:00)

BlueWalker 3 - Pass Details

Date: 19 May 2025
Orbit: 460 x 472 km, 53.2° (Epoch: 12 June)

Event Time Altitude Azimuth Distance (km) Brightness Sun altitude
Rises 22:39:59 0° 301° (WNW) 2,496 6.3 -23.9°
Reaches altitude 10° 22:42:12 10° 294° (WNW) 1,619 5.1 -24.1°
Enters shadow 22:44:07 26° 275° (W) 951 3.5 -24.2°
